Location: The Jewett Observatory
(46.7288°N, 117.1525°W)
Time: 08:50:08
(UTC-07:00)

Meteor 1-28 Rocket - Visible Passes

Search period start: 19 September 2014 00:00
Search period end: 29 September 2014 00:00
Orbit: 515 x 535 km, 97.3° (Epoch: 18 September)

Date Brightness Start Highest point End Pass type
(mag) Time Alt. Az. Time Alt. Az. Time Alt. Az.
19 Sep 4.8 20:50:15 10° NNE 20:51:54 23° NE 20:51:54 23° NE visible
19 Sep 6.1 22:25:24 10° NNW 22:27:05 16° NW 22:27:05 16° NW visible
20 Sep 5.1 20:38:26 10° NNE 20:39:34 17° NE 20:39:34 17° NE visible
20 Sep 5.9 22:13:03 10° NNW 22:14:44 18° NW 22:14:44 18° NW visible
21 Sep 5.5 20:26:42 10° NE 20:27:13 13° NE 20:27:13 13° NE visible
21 Sep 5.7 22:00:49 10° N 22:02:24 20° NNW 22:02:24 20° NNW visible
22 Sep 5.6 21:48:39 10° N 21:50:03 20° NNW 21:50:03 20° NNW visible
23 Sep 5.6 21:36:33 10° N 21:37:42 19° N 21:37:42 19° N visible
24 Sep 5.6 21:24:29 10° N 21:25:21 16° N 21:25:21 16° N visible
25 Sep 5.7 21:12:29 10° NNE 21:12:59 14° NNE 21:12:59 14° NNE visible
26 Sep 5.9 21:00:31 10° NNE 21:00:38 11° NNE 21:00:38 11° NNE visible
